www.pogodaiklimat.ru

Погода и климат >> Архив погоды >> Кувейт >> Abdaly


ПОГОДА в Abdaly

  • Прогноз погоды в Abdaly
  • Монитор погоды в Abdaly
  • Климат города

АРХИВ ПОГОДЫ в Abdaly

Время (UTC), дата Ветер
(напр.,м/с)
 
Видим.   Явления Облачность Т
(С)
Тd
(С)
f
(%)
Тe
(С)
Тes
(С)
Комфортность P
(гПа)
Po
(гПа)
Тmin
(С)
Tmax
(С)
R
(мм)
R24
(мм)
S
(см)
21 18.06 С 6 13 км н/о +36.0 +9.0 19 +34 +34 очень
жарко
1000.7 1001.0 +31.1 +46.3
00 19.06 С 5 17 км н/о +33.2 +10.1 24 +32 +32 жарко 1001.4 1001.0
03 19.06 С 3 20 км н/о +31.2 +8.3 24 +30 +30 жарко 1002.4 1002.0
06 19.06 СВ 6 19 км н/о +39.4 +6.5 14 +37 +37 очень
жарко
1003.0 1003.0
09 19.06 СВ 6 18 км н/о +44.5 +9.2 12 +43 +43 опасность
перегрева
1002.6 1003.0
12 19.06 С 7 19 км н/о +44.6 +8.6 12 +43 +43 опасность
перегрева
1002.3 1002.0
15 19.06 СВ 5 19 км н/о +41.1 +9.1 15 +39 +39 очень
жарко
1002.5 1003.0
18 19.06 С 3 20 км н/о +37.3 +8.7 18 +36 +36 очень
жарко
1004.0 1004.0
21 19.06 С 4 20 км н/о +33.4 +7.8 21 +32 +32 жарко 1003.9 1004.0 +30.3 +45.2
00 20.06 С 3 20 км н/о +31.4 +8.9 25 +31 +31 жарко 1002.9 1003.0
03 20.06 С 4 19 км н/о +30.7 +9.8 27 +30 +30 жарко 1003.6 1004.0
06 20.06 СВ 7 19 км н/о +41.3 +8.6 14 +39 +39 очень
жарко
1003.7 1004.0
09 20.06 СВ 9 16 км н/о +44.0 +8.9 12 +42 +42 опасность
перегрева
1003.4 1003.0
12 20.06 С 8 18 км н/о +44.7 +9.1 12 +43 +43 опасность
перегрева
1002.6 1003.0
15 20.06 С 8 20 км н/о +42.3 +7.5 12 +40 +40 очень
жарко
1002.7 1003.0
18 20.06 С 3 20 км н/о +37.9 +8.5 17 +36 +36 очень
жарко
1003.5 1004.0
21 20.06 С 4 20 км н/о +34.9 +7.4 18 +33 +33 жарко 1003.2 1003.0 +29.9 +46.5
00 21.06 С 3 20 км н/о +32.3 +8.3 23 +31 +31 жарко 1002.8 1003.0
03 21.06 С 3 20 км н/о +30.4 +8.6 26 +30 +30 жарко 1003.6 1004.0
06 21.06 С 8 20 км н/о +39.2 +8.5 16 +37 +37 очень
жарко
1004.2 1004.0
09 21.06 С 8 7000 м дым н/о +43.3 +8.5 13 +41 +41 опасность
перегрева
1003.0 1003.0
12 21.06 С 8 9000 м дым н/о +43.2 +5.5 10 +40 +40 очень
жарко
1002.5 1003.0
15 21.06 СВ 6 7000 м дым н/о +40.7 +6.7 13 +38 +38 очень
жарко
1002.4 1002.0
18 21.06 С 4 1800 м дымка н/о +37.2 +7.0 16 +35 +35 очень
жарко
1003.8 1004.0
21 21.06 С 4 6000 м дымка н/о +33.4 +8.0 21 +32 +32 жарко 1003.2 1003.0 +29.8 +44.1
00 22.06 С 3 16 км н/о +30.2 +7.4 24 +29 +29 жарко 1002.6 1003.0
03 22.06 СЗ 4 20 км н/о +27.8 +7.7 28 +27 +27 жарко 1003.0 1003.0
06 22.06 С 7 14 км н/о +37.1 +8.6 18 +35 +35 очень
жарко
1002.8 1003.0
09 22.06 С 8 13 км н/о +40.8 +9.4 15 +39 +39 очень
жарко
1001.8 1002.0
12 22.06 СВ 6 16 км н/о +43.3 +6.5 11 +41 +41 опасность
перегрева
1000.3 1000.0
15 22.06 С 7 15 км н/о +40.6 +4.8 11 +38 +38 очень
жарко
1000.1 1000.0
18 22.06 С 4 2900 м дымка н/о +36.3 +9.4 19 +35 +35 очень
жарко
1001.5 1002.0
21 22.06 С 4 11 км н/о +32.9 +8.8 23 +32 +32 жарко 1001.7 1002.0 +26.8 +43.4
00 23.06 С 3 19 км н/о +29.8 +8.6 27 +29 +29 жарко 1001.5 1002.0
03 23.06 С 5 17 км н/о +28.4 +8.5 29 +28 +28 жарко 1002.2 1002.0
06 23.06 С 8 10 км н/о +36.2 +10.2 21 +35 +35 очень
жарко
1002.7 1003.0
09 23.06 С 8 6000 м дым н/о +40.5 +11.1 17 +39 +39 очень
жарко
1001.7 1002.0
12 23.06 С 7 2600 м дым н/о +40.9 +8.2 14 +39 +39 очень
жарко
1000.2 1000.0
15 23.06 С 6 1800 м дым н/о +39.1 +5.6 13 +36 +36 очень
жарко
1000.1 1000.0
18 23.06 С 4 2300 м дым н/о +35.7 +4.2 14 +33 +33 жарко 1001.4 1001.0
21 23.06 С 4 5000 м дымка н/о +30.9 +6.4 21 +29 +29 жарко 1001.0 1001.0 +27.7 +41.8
00 24.06 СЗ 4 17 км н/о +27.4 +5.4 25 +26 +26 жарко 1000.9 1001.0
03 24.06 СЗ 5 19 км н/о +28.3 +5.5 23 +27 +27 жарко 1001.5 1002.0
06 24.06 С 5 11 км н/о +37.8 +8.0 16 +36 +36 очень
жарко
1001.8 1002.0
09 24.06 С 6 11 км н/о +41.6 +9.1 14 +40 +40 очень
жарко
1001.1 1001.0
12 24.06 С 5 16 км н/о +43.9 +8.2 12 +42 +42 опасность
перегрева
999.7 1000.0
15 24.06 С 4 15 км н/о +42.6 +8.1 13 +41 +41 опасность
перегрева
999.2 999.0
18 24.06 С 3 18 км н/о +37.6 +7.2 16 +35 +35 очень
жарко
1000.5 1001.0
21 24.06 С 2 16 км н/о +33.1 +9.4 23 +32 +32 жарко 1000.8 1001.0 +26.4 +44.4
00 25.06 С 3 10 км н/о +31.0 +8.6 25 +30 +30 жарко 1000.5 1001.0
03 25.06 С 4 14 км дымка н/о +30.1 +7.8 25 +29 +29 жарко 1001.4 1001.0
06 25.06 С 6 16 км н/о +39.2 +9.2 16 +37 +37 очень
жарко
1001.7 1002.0
09 25.06 СВ 5 18 км н/о +43.8 +10.5 14 +42 +42 опасность
перегрева
1000.5 1001.0
12 25.06 СВ 5 17 км н/о +45.5 +9.3 12 +44 +44 опасность
перегрева
998.7 999.0
15 25.06 С 5 18 км н/о +44.4 +6.6 10 +42 +42 опасность
перегрева
998.1 998.0
18 25.06 С 4 18 км н/о +39.0 +7.7 15 +37 +37 очень
жарко
999.1 999.0

 

Местоположение метеостанции Abdaly (Кувейт): широта 30.08 долгота 47.70 высота над уровнем моря 70 м.

В архиве по умолчанию представлена погода в Abdaly за последнюю неделю. Архивные данные за месяц целиком и за предыдущие месяцы, начиная с января 2011 года, Вы можете получить, выбрав интересующий диапазон дат из раскрывающегося списка и нажав кнопку "Ввод!".


*Определитесь, кто Вы:
робот инопланетянин человек

Внимание! Время в таблицах - всемирное. Для получения местного времени необходимо прибавить поправку, которая в Abdaly равна 3 ч.

Смотрите также архив погоды в соседних городах и на ближайших метеорологических станциях:

Погода в Sabriyah (Кувейт) (39 км)
Погода в Mitribah (Кувейт) (43 км)
Погода в Basrah Airport (Ирак) (50 км)
Погода в Jal Aliyah (Кувейт) (54 км)
Погода в Basrah (Ирак) (55 км)
Погода в Abadan (Иран) (62 км)
Погода в Bubiyan (Кувейт) (74 км)
Погода в Fao (Ирак) (78 км)
Погода в Jahra (Кувейт) (85 км)
Погода в Failaka Island (Кувейт) (88 км)

Пояснения к столбцам:

Ветер - указаны скорость ветра в м/с - средняя за 10 мин, порывы в срок и между сроками (в фигурных скобках) и направление, откуда дует ветер: С - северный, СВ - северо-восточный, В - восточный, ЮВ - юго-восточный, Ю - южный, ЮЗ - юго-западный, З - западный, СЗ - северо-западный.
Видимость - горизонтальная дальность видимости в метрах или километрах. При видимости от 1 до 10 км при отсутствии осадков обычно наблюдается дымка, при ухудшении видимости до 1 км и менее - туман. В сухую погоду видимость может ухудшаться дымом, пылью или мглою.
Явления - указаны атмосферные явления, наблюдавшиеся в срок или в последний час перед сроком; фигурными скобками обозначены явления, наблюдавшиеся между сроками (за 1-3 часа до срока); квадратными скобками обозначены град или гололедные отложения с указанием их диаметра в мм.
Облачность - указаны через наклонную черту общая и нижняя облачность в баллах и высота нижней границы облаков в метрах; квадратными скобками обозначены формы облаков: Ci - перистые, Cs - перисто-слоистые, Cc - перисто-кучевые, Ac - высококучевые, As - высокослоистые, Sc - слоисто-кучевые, Ns - слоисто-дождевые, Cu - кучевые, Cb - кучево-дождевые. Подробнее классификацию облаков см. в Атласе облаков (PDF).
T - Температура воздуха - температура, измеренная на высоте 2 м над землей.
Td - Температура точки росы - температура, при понижении до которой содержащийся в воздухе водяной пар достигнет насыщения.
f - Относительная влажность воздуха - влажноcть воздуха, измеренная на высоте 2 м над землей.
Te - Эффективная температура - температура, которую ощущает одетый по сезону человек в тени. Характеристика душности погоды. При расчете учитывается влияние влажности воздуха и скорости ветра на теплоощущения человека.
Tes - Эффективная температура на солнце - температура, которую ощущает человек, с поправкой на солнечный нагрев. Характеристика знойности погоды. Зависит от высоты солнца над горизонтом, облачности и скорости ветра. Ночью, в пасмурную погоду, а также при ветре 12 м/с и более поправка равна нулю.
P - Атмосферное давление - приведенное к уровню моря атмосферное давление.
Po - Атмосферное давление - измеренное на уровне метеостанции атмосферное давление.
Tmin - Минимальная температура - минимум температуры воздуха на высоте 2 м над землей.
Tmax - Максимальная температура - максимум температуры воздуха на высоте 2 м над землей.
R - Количество осадков - Количество выпавших осадков за период времени, мм. При наведении курсора мыши на число - период времени, за который выпало указанное количество осадков.
R24 - Количество осадков - Количество выпавших осадков за 24 часа, мм.
S - Снежный покров - Высота снежного покрова, см. При наведении курсора мыши на число - состояние снежного покрова и степень покрытия местности в баллах.